AirNav   ProFlight Series 2 Aviation Headset
 
 1379 users online  

T37 Goldthwaite Municipal Airport
Goldthwaite, Texas, USA

GOING TO GOLDTHWAITE?


FAA INFORMATION EFFECTIVE 18 JUNE 2020

Location

FAA Identifier: T37
Lat/Long: 31-25-44.6400N 098-36-30.0800W
31-25.744000N 098-36.501333W
31.4290667,-98.6083556
(estimated)
Elevation: 1457 ft. / 444 m (estimated)
From city: 2 miles SW of GOLDTHWAITE, TX
Time zone: UTC -5 (UTC -6 during Standard Time)
Zip code: 76844

Airport Operations

Airport use: Open to the public
Activation date: 08/2010
Control tower: no
ARTCC: FORT WORTH CENTER
FSS: FORT WORTH FLIGHT SERVICE STATION
NOTAMs facility: FTW (NOTAM-D service available)
Attendance: 0800-1700
Wind indicator: lighted
Segmented circle: yes

Airport Communications

CTAF: 122.9
WX AWOS-3 at 81R (13 nm SW): PHONE 325-372-6027

Nearby radio navigation aids

VOR radial/distance  VOR name  Freq  Var
AGJr296/28.0GOOCH SPRINGS VORTAC112.5005E
BWDr139/33.0BROWNWOOD VOR/DME108.6008E
LLOr006/39.1LLANO VORTAC108.2008E

Airport Services

Parking: hangars

Runway Information

Runway 1/19

Dimensions: 3200 x 60 ft. / 975 x 18 m
Surface: asphalt, in good condition
Weight bearing capacity: 
Single wheel: 12.5
RUNWAY 1  RUNWAY 19
Latitude: 31-25.485000N31-26.002833N
Longitude: 098-36.560833W098-36.442000W
Elevation: 1445.0 ft.1457.0 ft.
Traffic pattern: leftleft
Markings: basic, in fair conditionbasic, in fair condition
Obstructions: 3 ft. fence, 200 ft. from runway, 91 ft. left of centerline
3 FT FENCE 0-200 FT FM THLD 91 FT L.
50 ft. tree, 1133 ft. from runway, 32 ft. left of centerline, 18:1 slope to clear

Airport Ownership and Management from official FAA records

Ownership: Publicly-owned
Owner: CITY OF GOLDTHWAITE
PO BOX 450
GOLDTHWAITE, TX 76844-0450
Phone 325-648-3186
Manager: ROBERT LINDSEY
PO BOX 450
GOLDTHWAITE, TX 76844-0450
Phone 325-648-3186
CITY MANAGER

Airport Operational Statistics

Aircraft based on the field: 9
Single engine airplanes: 9
    
Aircraft operations: avg 52/week *
67% local general aviation
33% transient general aviation
* for 12-month period ending 13 September 2017

Additional Remarks

RWY 01 HAS 4 FT FENCE AND ISOLATED + 18 FT TREES 400-475 FT FM THLD ACROSS APCH.
DEER ON & INVOF ARPT.
FOR CD CTC FORT WORTH ARTCC AT 817-858-7584.

Instrument Procedures

There are no published instrument procedures at T37.

Some nearby airports with instrument procedures:

KMNZ - Hamilton Municipal Airport (27 nm NE)
KBWD - Brownwood Regional Airport (28 nm NW)
KLZZ - Lampasas Airport (29 nm SE)
KMKN - Comanche County-City Airport (29 nm N)
KAQO - Llano Municipal Airport (39 nm S)
 
Loc | Ops | Rwys | IFR | FBO | Links
Com | Nav | Svcs | Stats | Notes
Aerial photo
WARNING: Photo may not be current or correct
Aerial photo of T37 (Goldthwaite Municipal Airport)
Photo taken 20-Sep-2010

Do you have a better or more recent aerial photo of Goldthwaite Municipal Airport that you would like to share? If so, please send us your photo.

 
Sectional chart

 
Airport distance calculator
Flying to Goldthwaite Municipal Airport? Find the distance to fly.

From to T37

Sunrise and sunset
Times for 13-Jul-2020
 Local
(UTC-5)
 Zulu
(UTC)
Morning civil twilight06:1311:13
Sunrise06:4111:41
Sunset20:4001:40
Evening civil twilight21:0702:07

Current date and time
Zulu (UTC)  13-Jul-2020 15:20:43
Local (UTC-5)  13-Jul-2020 10:20:43
 
METAR
KMNZ 
27nm NE 
131455Z AUTO 22013KT 10SM CLR 34/21 A2995 RMK AO2 T03380207
KBWD 
28nm NW 
131435Z AUTO 21006KT 10SM CLR 31/20 A2996 RMK AO1
KLZZ 
29nm SE 
131455Z AUTO 22007KT 10SM CLR 32/22 A2994 RMK AO2 T03190216
KMKN 
29nm N 
131423Z AUTO 23008G15KT 10SM CLR 31/21 A2995 RMK AO2
KAQO 
39nm S 
131455Z AUTO 27006KT 10SM CLR 32/21 A2994 RMK AO2
KBBD 
40nm W 
131455Z AUTO 21013KT 10SM CLR 31/20 A2996 RMK AO2
KGOP 
42nm E 
131455Z AUTO 20008KT 10SM CLR 32/22 A2994 RMK AO2
KGRK 
45nm SE 
131458Z AUTO 17007KT 10SM SCT170 32/22 A2992 RMK AO2 SLP118 T03210217
KBMQ 
46nm SE 
131453Z AUTO 20010KT 10SM CLR 32/19 A2997 RMK AO2 SLP126 T03170189 52006
KCOM 
48nm NW 
131455Z AUTO 20009G14KT 10SM CLR 33/17 A2996 RMK AO2 T03300171
TAF
KBBD 
40nm W 
131120Z 1312/1412 18008KT P6SM SKC FM131400 20012G21KT P6SM SKC
KGRK 
45nm SE 
130800Z 1308/1414 16009KT 9999 SKC QNH2986INS BECMG 1315/1316 18010G15KT 9999 SKC QNH2990INS BECMG 1320/1321 20006KT 9999 SKC QNH2986INS TX41/1322Z TN24/1312Z
NOTAMs
Click for the latest NOTAMs
NOTAMs are issued by the DoD/FAA and will open in a separate window not controlled by AirNav.

 

 
 

Would you like to see your business listed on this page?

 If your business provides an interesting product or service to pilots, flight crews, aircraft, or users of the Goldthwaite Municipal Airport, you should consider listing it here.  To start the listing process, click on the button below
 
Add a business
 

Other Pages about Goldthwaite Municipal Airport

Update a link
 
Copyright © AirNav, LLC. All rights reserved. Privacy Policy  Contact